Regional Weather Roundup
Issued by NWS

Home | Current Version | Previous Version | Text Only | Print | Product List | Glossary On
Versions: 1 2 3 4 5 6 7 8 9 10 11 12 13 14 15 16 17 18 19 20 21 22 23 24 25 26 27 28 29 30 31 32 33 34 35 36 37 38 39 40 41 42 43 44 45 46 47 48 49 50
000
ASUS43 KLSX 261707
RWRMO

WEATHER SUMMARY FOR MISSOURI
NATIONAL WEATHER SERVICE SPRINGFIELD MO
1200 PM CDT SUN APR 26 2015

NOTE: "FAIR" INDICATES FEW OR NO CLOUDS BELOW 12,000 FEET WITH NO
       SIGNIFICANT WEATHER AND/OR OBSTRUCTIONS TO VISIBILITY.
       CURRENT SKY AND/OR WEATHER CONDITIONS ARE NOT AVAILABLE FOR
       CHILLICOTHE AND FARMINGTON.

MOZ001>031-035>038-043-044-053-054-261800-
...NORTHERN AND WESTERN MISSOURI...

CITY           SKY/WX    TMP DP  RH WIND       PRES   REMARKS
KANSAS CTY INT CLOUDY    52  43  71 NE12      30.00R
KANSAS C DTWN  CLOUDY    54  43  66 E13       29.99R
LEE`S SUMMIT   CLOUDY    50  42  74 NE13G18   29.99S
ST JOSEPH      CLOUDY    54  42  64 E12       30.02S
CHILLICOTHE      N/A     58  38  47 E9G20     30.03R
KIRKSVILLE     SUNNY     56  39  53 E8G20     30.02S

$$
MOZ066>068-077>081-088>096-101>105-261800-
...SOUTHWEST MISSOURI...

CITY           SKY/WX    TMP DP  RH WIND       PRES   REMARKS
SPRINGFIELD    CLOUDY    54  45  71 NE15      29.90S
JOPLIN         CLOUDY    55  49  80 NE12G18   29.90R

$$
MOZ032>034-039>042-045>050-055>058-069>072-261800-
...CENTRAL MISSOURI...

CITY           SKY/WX    TMP DP  RH WIND       PRES   REMARKS
COLUMBIA       MOSUNNY   56  42  59 E14       29.97S
JEFFERSON CITY MOSUNNY   56  39  53 NE12      29.97S
ROLLA          CLOUDY    53  45  74 NE9       29.94R
SEDALIA        PTSUNNY   54  45  71 E9        29.99F
WHITEMAN AFB   PTSUNNY   51  44  78 E12       29.97S
WARRENSBURG    CLOUDY    50  43  76 NE10      29.99S
OSAGE BEACH    CLOUDY    52  43  71 NE10      29.96S

$$
MOZ051-052-059>065-261800-
...EAST CENTRAL MISSOURI...

CITY           SKY/WX    TMP DP  RH WIND       PRES   REMARKS
ST LOUIS INTL  MOSUNNY   59  36  42 E9        29.97R
SPIRIT OF STL  MOSUNNY   58  34  40 NE13      29.95F
ST CHARLES     SUNNY     58  39  49 E13       29.97R

$$
MOZ072>076-082>087-097>100-106>115-261800-
...SOUTH CENTRAL AND SOUTHEAST MISSOURI...

CITY           SKY/WX    TMP DP  RH WIND       PRES   REMARKS
CAPE GIRARDEAU CLOUDY    55  46  71 N12       29.91S
FARMINGTON     CLOUDY    54  45  71 NE10      29.96S
POPLAR BLUFF   CLOUDY    54  45  71 N12       29.90S
WEST PLAINS    CLOUDY    50  44  80 NE13      29.92S

$$


USA.gov is the U.S. government's official web portal to all federal, state and local government web resources and services.